EZY25TF EHAM-EGBB

Flight info

Callsign EZY25TF
Flight time 1h 2m
Altitude 34000
Route IDRID L980 LAM L610 HEMEL
Aircraft A320/M-SDE3FGHIRWY/LB1

Departure

Time 2026-04-29 10:50
Airport Amsterdam Airport Schiphol (EHAM)

Arrival

Time 2026-04-29 11:52
Airport Birmingham Airport (EGBB)
Time Latitude Longitude Altitude Speed Heading
2026-04-29 10:27 52.30968 4.75300 -3 ft 0 kts 148°
2026-04-29 10:34 52.30970 4.75298 -3 ft 2 kts 148°
2026-04-29 10:34 52.30984 4.75283 -2 ft 2 kts 146°
2026-04-29 10:35 52.30997 4.75267 -2 ft 2 kts 135°
2026-04-29 10:35 52.31007 4.75246 -2 ft 2 kts 78°
2026-04-29 10:35 52.31004 4.75230 -2 ft 0 kts 60°
2026-04-29 10:36 52.31004 4.75231 -2 ft 0 kts 60°
2026-04-29 10:40 52.31018 4.75272 -2 ft 16 kts 60°
2026-04-29 10:40 52.31084 4.75443 -1 ft 18 kts 54°
2026-04-29 10:41 52.31197 4.75487 4 ft 23 kts 356°
2026-04-29 10:41 52.31391 4.75478 8 ft 29 kts 357°
2026-04-29 10:41 52.31485 4.75467 11 ft 1 kts 343°
2026-04-29 10:41 52.31514 4.75347 10 ft 21 kts 257°
2026-04-29 10:42 52.31504 4.75120 11 ft 23 kts 268°
2026-04-29 10:42 52.31493 4.74784 14 ft 31 kts 266°
2026-04-29 10:42 52.31481 4.74472 17 ft 25 kts 266°
2026-04-29 10:42 52.31511 4.74279 12 ft 9 kts 341°
2026-04-29 10:43 52.31562 4.74296 14 ft 20 kts
2026-04-29 10:43 52.31778 4.74319 12 ft 34 kts
2026-04-29 10:43 52.31979 4.74337 7 ft 18 kts
2026-04-29 10:43 52.32034 4.74207 11 ft 13 kts 272°
2026-04-29 10:44 52.32038 4.74056 13 ft 17 kts 275°
2026-04-29 10:44 52.32048 4.73790 19 ft 24 kts 273°
2026-04-29 10:44 52.32058 4.73523 16 ft 24 kts 274°
2026-04-29 10:44 52.32132 4.73295 9 ft 25 kts 321°
2026-04-29 10:45 52.32227 4.73164 4 ft 31 kts 320°
2026-04-29 10:45 52.32402 4.72917 -2 ft 34 kts 320°
2026-04-29 10:45 52.32586 4.72654 -3 ft 36 kts 320°
2026-04-29 10:45 52.32751 4.72390 -5 ft 15 kts 313°
2026-04-29 10:46 52.32777 4.72342 1 ft 7 kts 311°
2026-04-29 10:46 52.32865 4.72184 -2 ft 31 kts 312°
2026-04-29 10:46 52.33022 4.71910 0 ft 33 kts 310°
2026-04-29 10:46 52.33155 4.71616 7 ft 27 kts 288°
2026-04-29 10:47 52.33137 4.71427 12 ft 14 kts 298°
2026-04-29 10:47 52.33190 4.71316 15 ft 13 kts 312°
2026-04-29 10:47 52.33277 4.71159 14 ft 14 kts 311°
2026-04-29 10:47 52.33333 4.71053 15 ft 11 kts 311°
2026-04-29 10:48 52.33380 4.70970 16 ft 9 kts 315°
2026-04-29 10:48 52.33434 4.70936 16 ft 8 kts
2026-04-29 10:48 52.33437 4.70936 16 ft 0 kts
2026-04-29 10:49 52.33509 4.70944 17 ft 39 kts
2026-04-29 10:49 52.34018 4.70991 16 ft 105 kts
2026-04-29 10:49 52.34938 4.71077 24 ft 156 kts
2026-04-29 10:50 52.36031 4.71163 556 ft 160 kts
2026-04-29 10:50 52.37179 4.71242 1171 ft 170 kts
2026-04-29 10:50 52.38392 4.71310 1740 ft 181 kts
2026-04-29 10:50 52.39697 4.71352 2234 ft 193 kts
2026-04-29 10:51 52.41080 4.71246 2817 ft 208 kts
2026-04-29 10:51 52.42572 4.70671 3338 ft 233 kts 348°
2026-04-29 10:51 52.44067 4.69421 4005 ft 249 kts 328°
2026-04-29 10:51 52.45274 4.67311 4781 ft 264 kts 310°
2026-04-29 10:52 52.46213 4.64546 5240 ft 290 kts 293°
2026-04-29 10:52 52.46658 4.61267 6023 ft 299 kts 274°
2026-04-29 10:52 52.46530 4.57862 6931 ft 301 kts 257°
2026-04-29 10:52 52.45849 4.54623 7800 ft 302 kts 240°
2026-04-29 10:53 52.44654 4.51816 8666 ft 300 kts 224°
2026-04-29 10:53 52.43047 4.49655 9516 ft 300 kts 208°
2026-04-29 10:53 52.41349 4.47642 10322 ft 307 kts 224°
2026-04-29 10:53 52.40057 4.44758 10768 ft 326 kts 239°
2026-04-29 10:54 52.39029 4.41311 10989 ft 349 kts 246°
2026-04-29 10:54 52.38092 4.37574 11513 ft 359 kts 248°
2026-04-29 10:54 52.37136 4.33794 12195 ft 364 kts 246°
2026-04-29 10:54 52.36084 4.29965 12919 ft 368 kts 244°
2026-04-29 10:55 52.34951 4.26192 13632 ft 372 kts 242°
2026-04-29 10:55 52.33745 4.22425 14307 ft 376 kts 241°
2026-04-29 10:55 52.32491 4.18647 14925 ft 380 kts 240°
2026-04-29 10:55 52.31124 4.14939 15560 ft 382 kts 233°
2026-04-29 10:56 52.29494 4.11564 16156 ft 385 kts 230°
2026-04-29 10:56 52.27824 4.08121 16776 ft 388 kts 231°
2026-04-29 10:56 52.26150 4.04632 17381 ft 392 kts 231°
2026-04-29 10:56 52.24470 4.01109 18017 ft 394 kts 232°
2026-04-29 10:57 52.22783 3.97567 18608 ft 398 kts 232°
2026-04-29 10:57 52.21076 3.93987 19118 ft 401 kts 231°
2026-04-29 10:57 52.19352 3.90382 19662 ft 404 kts 231°
2026-04-29 10:57 52.17617 3.86770 20202 ft 407 kts 231°
2026-04-29 10:58 52.15865 3.83126 20710 ft 410 kts 231°
2026-04-29 10:58 52.14099 3.79456 21263 ft 413 kts 231°
2026-04-29 10:58 52.12320 3.75765 21786 ft 416 kts 231°
2026-04-29 10:58 52.10528 3.72050 22296 ft 419 kts 231°
2026-04-29 10:59 52.08719 3.68315 22814 ft 422 kts 231°
2026-04-29 10:59 52.06896 3.64560 23336 ft 425 kts 231°
2026-04-29 10:59 52.05059 3.60780 23809 ft 428 kts 231°
2026-04-29 10:59 52.03207 3.56979 24222 ft 431 kts 231°
2026-04-29 11:00 52.01339 3.53155 24607 ft 433 kts 231°
2026-04-29 11:00 51.99460 3.49307 24994 ft 436 kts 231°
2026-04-29 11:00 51.97607 3.45395 25365 ft 439 kts 232°
2026-04-29 11:00 51.95788 3.41399 25731 ft 442 kts 232°
2026-04-29 11:01 51.93984 3.37350 26096 ft 444 kts 233°
2026-04-29 11:01 51.92182 3.33279 26471 ft 446 kts 232°
2026-04-29 11:01 51.90368 3.29194 26819 ft 448 kts 232°
2026-04-29 11:01 51.88535 3.25101 27160 ft 450 kts 232°
2026-04-29 11:02 51.86802 3.20849 27485 ft 455 kts 239°
2026-04-29 11:02 51.85472 3.16194 27787 ft 459 kts 249°
2026-04-29 11:02 51.84612 3.11200 28104 ft 462 kts 259°
2026-04-29 11:02 51.84209 3.06034 28403 ft 465 kts 264°
2026-04-29 11:03 51.83882 3.00813 28707 ft 468 kts 264°
2026-04-29 11:03 51.83541 2.95570 29000 ft 471 kts 264°
2026-04-29 11:03 51.83190 2.90299 29279 ft 473 kts 263°
2026-04-29 11:03 51.82831 2.84988 29563 ft 476 kts 263°
2026-04-29 11:04 51.82467 2.79660 29839 ft 478 kts 263°
2026-04-29 11:04 51.82101 2.74299 30108 ft 480 kts 263°
2026-04-29 11:04 51.81735 2.68919 30368 ft 483 kts 263°
2026-04-29 11:04 51.81366 2.63518 30591 ft 485 kts 263°
2026-04-29 11:05 51.80994 2.58092 30809 ft 487 kts 263°
2026-04-29 11:05 51.80618 2.52638 31026 ft 488 kts 263°
2026-04-29 11:05 51.80239 2.47180 31241 ft 490 kts 263°
2026-04-29 11:05 51.79856 2.41706 31442 ft 491 kts 263°
2026-04-29 11:06 51.79468 2.36222 31726 ft 491 kts 262°
2026-04-29 11:06 51.79076 2.30754 32014 ft 490 kts 262°
2026-04-29 11:06 51.78678 2.25284 32295 ft 490 kts 262°
2026-04-29 11:06 51.78282 2.19821 32589 ft 489 kts 262°
2026-04-29 11:07 51.77927 2.14359 32889 ft 489 kts 263°
2026-04-29 11:07 51.77610 2.08903 33185 ft 488 kts 264°
2026-04-29 11:07 51.77322 2.03607 33460 ft 488 kts 264°
2026-04-29 11:07 51.77016 1.97984 33748 ft 488 kts 264°
2026-04-29 11:08 51.76709 1.92539 34033 ft 487 kts 263°
2026-04-29 11:08 51.76390 1.87088 34276 ft 488 kts 263°
2026-04-29 11:08 51.76058 1.81659 34335 ft 483 kts 262°
2026-04-29 11:09 51.75378 1.70932 34339 ft 479 kts 262°
2026-04-29 11:09 51.74696 1.60244 34339 ft 479 kts 262°
2026-04-29 11:10 51.74016 1.49562 34337 ft 479 kts 262°
2026-04-29 11:10 51.73332 1.38951 34337 ft 478 kts 261°
2026-04-29 11:11 51.72629 1.28281 34334 ft 479 kts 261°
2026-04-29 11:11 51.71921 1.17602 34337 ft 479 kts 261°
2026-04-29 11:12 51.71205 1.06938 34329 ft 479 kts 261°
2026-04-29 11:12 51.70476 0.96276 34346 ft 478 kts 261°
2026-04-29 11:13 51.69782 0.85588 34329 ft 481 kts 266°
2026-04-29 11:13 51.70032 0.80205 34327 ft 483 kts 277°
2026-04-29 11:13 51.70509 0.74839 34316 ft 484 kts 277°
2026-04-29 11:14 51.71485 0.64089 34310 ft 485 kts 277°
2026-04-29 11:14 51.72463 0.53312 34294 ft 488 kts 277°
2026-04-29 11:15 51.73431 0.42433 34326 ft 491 kts 277°
2026-04-29 11:15 51.74394 0.31489 33278 ft 498 kts 277°
2026-04-29 11:15 51.75245 0.26087 32812 ft 492 kts 293°
2026-04-29 11:16 51.76893 0.21339 32425 ft 481 kts 308°
2026-04-29 11:16 51.78951 0.17114 31893 ft 476 kts 311°
2026-04-29 11:16 51.81036 0.12987 31328 ft 473 kts 311°
2026-04-29 11:16 51.83106 0.08875 30849 ft 469 kts 311°
2026-04-29 11:17 51.85153 0.04799 30350 ft 465 kts 311°
2026-04-29 11:17 51.87191 0.00748 29797 ft 462 kts 311°
2026-04-29 11:17 51.89212 -0.03272 29209 ft 459 kts 311°
2026-04-29 11:17 51.91221 -0.07288 28619 ft 458 kts 311°
2026-04-29 11:18 51.93222 -0.11281 28088 ft 454 kts 311°
2026-04-29 11:18 51.95211 -0.15241 27597 ft 451 kts 311°
2026-04-29 11:18 51.97184 -0.19164 27117 ft 448 kts 311°
2026-04-29 11:18 51.99113 -0.23105 26629 ft 445 kts 305°
2026-04-29 11:19 52.00469 -0.27586 26187 ft 441 kts 285°
2026-04-29 11:19 52.00993 -0.32439 25731 ft 435 kts 272°
2026-04-29 11:19 52.01227 -0.37313 25259 ft 432 kts 271°
2026-04-29 11:19 52.01440 -0.42157 24823 ft 429 kts 271°
2026-04-29 11:20 52.01651 -0.46977 24394 ft 426 kts 271°
2026-04-29 11:20 52.01863 -0.51753 23973 ft 423 kts 271°
2026-04-29 11:20 52.02074 -0.56499 23500 ft 420 kts 271°
2026-04-29 11:20 52.02279 -0.61206 23011 ft 417 kts 271°
2026-04-29 11:21 52.02475 -0.65881 22548 ft 414 kts 271°
2026-04-29 11:21 52.02664 -0.70527 22160 ft 409 kts 271°
2026-04-29 11:21 52.02845 -0.75076 21890 ft 401 kts 271°
2026-04-29 11:21 52.03019 -0.79574 21494 ft 397 kts 271°
2026-04-29 11:22 52.03185 -0.84033 21096 ft 394 kts 271°
2026-04-29 11:22 52.03342 -0.88466 20687 ft 392 kts 271°
2026-04-29 11:22 52.03490 -0.92862 20292 ft 389 kts 271°
2026-04-29 11:22 52.03631 -0.97232 19912 ft 387 kts 271°
2026-04-29 11:23 52.03766 -1.01585 19527 ft 385 kts 271°
2026-04-29 11:23 52.03896 -1.05923 19146 ft 384 kts 271°
2026-04-29 11:23 52.04018 -1.10233 18798 ft 381 kts 271°
2026-04-29 11:23 52.04133 -1.14526 18369 ft 379 kts 271°
2026-04-29 11:24 52.04239 -1.18790 17971 ft 377 kts 271°
2026-04-29 11:24 52.04344 -1.23032 17596 ft 374 kts 271°
2026-04-29 11:24 52.04449 -1.27237 17216 ft 371 kts 271°
2026-04-29 11:24 52.04554 -1.31412 16865 ft 369 kts 271°
2026-04-29 11:25 52.04657 -1.35553 16516 ft 366 kts 271°
2026-04-29 11:25 52.04759 -1.39670 16060 ft 362 kts 271°
2026-04-29 11:25 52.04860 -1.43772 15126 ft 366 kts 271°
2026-04-29 11:25 52.04961 -1.47874 14278 ft 368 kts 270°
2026-04-29 11:26 52.05466 -1.56163 12423 ft 367 kts 289°
2026-04-29 11:26 52.06687 -1.59752 11534 ft 362 kts 312°
2026-04-29 11:26 52.08579 -1.62338 10677 ft 352 kts 335°
2026-04-29 11:27 52.10024 -1.63488 10108 ft 348 kts 340°
2026-04-29 11:27 52.13001 -1.65151 8891 ft 335 kts 359°
2026-04-29 11:27 52.15248 -1.64887 8199 ft 315 kts 18°
2026-04-29 11:27 52.17323 -1.64048 7650 ft 301 kts 20°
2026-04-29 11:28 52.19314 -1.63207 7117 ft 291 kts 20°
2026-04-29 11:28 52.21245 -1.62391 6563 ft 281 kts 21°
2026-04-29 11:28 52.23114 -1.61616 6003 ft 273 kts 21°
2026-04-29 11:28 52.24333 -1.61124 5626 ft 269 kts 21°
2026-04-29 11:29 52.26164 -1.60403 5068 ft 269 kts 21°
2026-04-29 11:29 52.27963 -1.59745 4475 ft 267 kts 16°
2026-04-29 11:29 52.29855 -1.59767 3906 ft 269 kts
2026-04-29 11:29 52.31670 -1.60102 3309 ft 263 kts
2026-04-29 11:30 52.33411 -1.60936 3021 ft 258 kts 332°
2026-04-29 11:30 52.34691 -1.62824 2793 ft 247 kts 325°
2026-04-29 11:30 52.36021 -1.64470 2438 ft 235 kts 332°
2026-04-29 11:30 52.37356 -1.65923 2123 ft 228 kts 333°
2026-04-29 11:31 52.38656 -1.67346 1836 ft 219 kts 333°
2026-04-29 11:31 52.39883 -1.68705 1519 ft 205 kts 333°
2026-04-29 11:31 52.41041 -1.70030 1196 ft 200 kts 330°
2026-04-29 11:31 52.42116 -1.71245 1017 ft 179 kts 333°
2026-04-29 11:32 52.43121 -1.72321 727 ft 168 kts 335°
2026-04-29 11:32 52.44063 -1.73352 504 ft 155 kts 332°
2026-04-29 11:32 52.44920 -1.74307 334 ft 148 kts 333°
2026-04-29 11:32 52.45732 -1.75170 323 ft 126 kts 327°
2026-04-29 11:33 52.46537 -1.76057 527 ft 151 kts 330°
2026-04-29 11:33 52.47442 -1.77148 1196 ft 174 kts 329°
2026-04-29 11:33 52.48453 -1.78433 1782 ft 194 kts 330°
2026-04-29 11:33 52.49594 -1.79853 2141 ft 212 kts 330°
2026-04-29 11:34 52.50815 -1.81336 2596 ft 226 kts 330°
2026-04-29 11:34 52.52120 -1.82899 2974 ft 236 kts 331°
2026-04-29 11:34 52.53446 -1.84465 3005 ft 234 kts 330°
2026-04-29 11:34 52.54766 -1.86042 3006 ft 235 kts 330°
2026-04-29 11:35 52.56105 -1.87639 3013 ft 235 kts 330°
2026-04-29 11:35 52.57437 -1.89215 3012 ft 235 kts 330°
2026-04-29 11:35 52.58767 -1.90786 3014 ft 236 kts 330°
2026-04-29 11:35 52.60098 -1.92355 3006 ft 235 kts 330°
2026-04-29 11:36 52.61431 -1.93929 3009 ft 236 kts 330°
2026-04-29 11:36 52.62761 -1.95506 3013 ft 236 kts 330°
2026-04-29 11:36 52.64093 -1.97085 3009 ft 235 kts 330°
2026-04-29 11:36 52.65508 -1.98318 3009 ft 224 kts 356°
2026-04-29 11:37 52.66981 -1.98165 3019 ft 207 kts 31°
2026-04-29 11:37 52.68013 -1.96762 3014 ft 192 kts 64°
2026-04-29 11:37 52.68282 -1.94673 3023 ft 190 kts 94°
2026-04-29 11:37 52.68079 -1.92517 3017 ft 192 kts 99°
2026-04-29 11:38 52.67803 -1.90368 3020 ft 192 kts 100°
2026-04-29 11:38 52.67520 -1.88212 3016 ft 192 kts 100°
2026-04-29 11:38 52.67236 -1.86066 3017 ft 192 kts 101°
2026-04-29 11:38 52.66953 -1.83919 3015 ft 192 kts 100°
2026-04-29 11:39 52.66634 -1.81786 3011 ft 193 kts 110°
2026-04-29 11:39 52.65761 -1.80095 3014 ft 201 kts 140°
2026-04-29 11:39 52.64551 -1.78896 3011 ft 205 kts 144°
2026-04-29 11:39 52.63295 -1.77784 3006 ft 205 kts 146°
2026-04-29 11:40 52.62037 -1.76685 3006 ft 204 kts 145°
2026-04-29 11:40 52.60777 -1.75590 3011 ft 205 kts 145°
2026-04-29 11:40 52.59513 -1.74499 3012 ft 205 kts 146°
2026-04-29 11:40 52.58247 -1.73409 3009 ft 206 kts 146°
2026-04-29 11:41 52.56979 -1.72321 3006 ft 205 kts 146°
2026-04-29 11:41 52.55714 -1.71234 3011 ft 205 kts 146°
2026-04-29 11:41 52.54448 -1.70147 3008 ft 205 kts 146°
2026-04-29 11:41 52.53177 -1.69062 3014 ft 207 kts 145°
2026-04-29 11:42 52.51896 -1.67979 3010 ft 207 kts 146°
2026-04-29 11:42 52.50612 -1.66897 3026 ft 208 kts 145°
2026-04-29 11:42 52.49318 -1.65819 3018 ft 209 kts 146°
2026-04-29 11:42 52.48024 -1.64743 3012 ft 208 kts 146°
2026-04-29 11:43 52.46730 -1.63665 3011 ft 209 kts 146°
2026-04-29 11:43 52.45436 -1.62589 3013 ft 209 kts 146°
2026-04-29 11:43 52.44140 -1.61509 3012 ft 209 kts 146°
2026-04-29 11:43 52.42843 -1.60431 3009 ft 209 kts 146°
2026-04-29 11:44 52.41552 -1.59360 3016 ft 207 kts 146°
2026-04-29 11:44 52.40271 -1.58289 3012 ft 206 kts 146°
2026-04-29 11:44 52.38995 -1.57218 3009 ft 206 kts 146°
2026-04-29 11:44 52.37715 -1.56141 3008 ft 207 kts 146°
2026-04-29 11:45 52.36437 -1.55065 3005 ft 207 kts 145°
2026-04-29 11:45 52.35145 -1.54003 3006 ft 208 kts 146°
2026-04-29 11:45 52.33852 -1.52942 3041 ft 208 kts 146°
2026-04-29 11:45 52.32557 -1.51875 3048 ft 209 kts 146°
2026-04-29 11:46 52.31254 -1.50803 3049 ft 210 kts 146°
2026-04-29 11:46 52.29912 -1.49837 3045 ft 216 kts 160°
2026-04-29 11:46 52.28378 -1.50005 3050 ft 232 kts 195°
2026-04-29 11:46 52.27060 -1.51587 3076 ft 245 kts 229°
2026-04-29 11:47 52.26389 -1.54168 3057 ft 252 kts 263°
2026-04-29 11:47 52.26592 -1.56968 3056 ft 248 kts 294°
2026-04-29 11:47 52.27243 -1.59491 3041 ft 234 kts 300°
2026-04-29 11:47 52.27919 -1.61846 3027 ft 226 kts 301°
2026-04-29 11:48 52.28631 -1.64105 2991 ft 220 kts 313°
2026-04-29 11:48 52.29770 -1.65538 2997 ft 200 kts 355°
2026-04-29 11:48 52.31097 -1.65697 3056 ft 191 kts
2026-04-29 11:48 52.32427 -1.65832 3012 ft 192 kts
2026-04-29 11:49 52.33768 -1.65995 2852 ft 193 kts
2026-04-29 11:49 52.35105 -1.66237 2484 ft 193 kts
2026-04-29 11:49 52.36415 -1.66533 2259 ft 186 kts 358°
2026-04-29 11:49 52.37640 -1.66896 2044 ft 172 kts
2026-04-29 11:50 52.38780 -1.67430 1685 ft 176 kts 342°
2026-04-29 11:50 52.39780 -1.68700 1548 ft 190 kts 329°
2026-04-29 11:50 52.40813 -1.69968 1266 ft 176 kts 337°
2026-04-29 11:50 52.41810 -1.70905 1036 ft 158 kts 338°
2026-04-29 11:51 52.42712 -1.71851 798 ft 151 kts 332°
2026-04-29 11:51 52.43554 -1.72814 561 ft 143 kts 336°
2026-04-29 11:51 52.44398 -1.73717 387 ft 147 kts 334°
2026-04-29 11:51 52.45217 -1.74598 328 ft 126 kts 330°
2026-04-29 11:52 52.45797 -1.75250 323 ft 76 kts 323°
2026-04-29 11:52 52.46097 -1.75588 309 ft 22 kts 327°
2026-04-29 11:52 52.46171 -1.75564 310 ft 11 kts 51°
2026-04-29 11:52 52.46217 -1.75431 305 ft 16 kts 84°
2026-04-29 11:53 52.46156 -1.75337 303 ft 12 kts 141°
2026-04-29 11:53 52.46066 -1.75231 306 ft 19 kts 147°
2026-04-29 11:53 52.45938 -1.75091 306 ft 25 kts 143°
2026-04-29 11:53 52.45800 -1.74935 309 ft 23 kts 144°
2026-04-29 11:54 52.45670 -1.74789 315 ft 22 kts 146°
2026-04-29 11:54 52.45552 -1.74663 322 ft 19 kts 146°
2026-04-29 11:54 52.45458 -1.74518 323 ft 19 kts 119°
2026-04-29 11:54 52.45399 -1.74327 323 ft 19 kts 116°
2026-04-29 11:55 52.45340 -1.74134 323 ft 19 kts 116°
2026-04-29 11:55 52.45325 -1.73955 323 ft 15 kts 58°
2026-04-29 11:55 52.45383 -1.73808 323 ft 16 kts 55°
2026-04-29 11:55 52.45446 -1.73656 323 ft 17 kts 56°
2026-04-29 11:56 52.45478 -1.73522 323 ft 7 kts 138°
2026-04-29 11:56 52.45445 -1.73494 323 ft 5 kts 141°
2026-04-29 11:56 52.45428 -1.73476 323 ft 0 kts 145°
2026-04-29 11:57 52.45429 -1.73476 324 ft 0 kts 148°